Theta_e
316 316 316 317 316 315 315 315 315 314 314 315 314 314 314 315 315 310 303 313 320 327 328 324 322 323 322 317 318 317 303 299 301 302 304 313 312 314 316 316 317 320 320 322 323
316 316 316 316 316 316 316 315 315 314 314 314 314 313 314 315 308 303 311 317 322 328 322 318 316 319 315 314 314 309 302 302 307 307 309 312 313 312 310 313 314 318 322 324 319
317 317 316 316 316 316 316 315 315 314 314 313 314 313 313 312 302 298 319 317 321 324 322 320 319 316 310 313 312 310 303 307 308 311 311 311 310 311 310 308 315 316 318 320 317
317 316 316 316 316 315 315 315 315 314 314 313 313 313 313 308 284 310 320 322 323 322 319 315 313 311 306 305 311 303 309 310 310 313 312 308 310 308 308 309 318 322 321 320 317
317 316 316 315 315 315 314 315 314 313 314 313 313 313 307 297 296 306 314 313 313 315 313 311 308 307 304 307 309 306 308 311 313 312 312 312 308 308 308 312 324 323 321 319 318
316 316 316 315 314 314 314 313 313 313 313 313 313 312 301 290 305 306 305 308 310 309 310 312 309 311 307 306 306 310 309 309 311 311 310 309 308 306 309 321 322 322 319 319 319
316 315 315 314 314 314 313 313 313 313 312 313 312 307 298 294 305 306 305 303 309 307 305 312 313 309 308 305 310 307 304 307 309 310 308 310 305 305 312 321 318 319 319 319 319
315 315 315 314 313 313 313 312 312 312 312 312 311 302 292 305 303 304 305 303 307 306 308 313 315 310 307 307 303 301 301 298 306 309 310 307 298 307 312 317 316 317 317 318 319
315 314 314 313 313 312 312 312 313 312 311 311 301 298 291 307 301 305 307 300 302 309 311 314 312 306 304 298 294 298 292 297 300 309 307 305 299 306 312 316 314 315 316 319 320
313 313 313 313 313 312 312 312 311 309 306 306 301 292 296 294 298 300 302 303 303 304 304 306 305 298 297 294 285 288 291 298 297 303 306 303 301 308 312 314 314 315 315 318 320
314 313 313 312 312 311 307 301 292 291 295 290 292 293 294 297 300 298 303 303 302 300 295 301 294 291 293 295 294 293 294 295 300 305 303 302 302 305 309 310 313 314 314 317 319
313 313 312 312 312 310 301 293 296 296 288 295 295 294 296 298 293 296 304 295 295 290 295 295 291 296 298 298 296 294 292 293 300 304 303 302 301 305 308 309 313 314 314 315 318
313 313 312 312 311 303 298 298 303 299 285 289 292 293 295 298 292 293 298 297 293 290 292 291 294 298 296 294 291 290 292 294 295 302 303 301 298 301 306 310 312 316 317 317 317
313 312 311 310 302 298 295 302 302 298 275 282 289 294 298 297 290 297 301 297 294 290 292 293 297 297 296 293 292 286 296 294 296 296 290 300 288 298 302 305 310 313 316 317 318
311 309 309 309 297 296 299 302 300 293 261 283 288 300 297 292 291 293 302 298 291 292 294 290 292 295 293 294 297 293 297 294 293 295 293 295 292 296 301 300 306 309 314 316 319
309 309 309 303 299 299 302 301 295 274 265 279 288 286 287 290 290 292 293 298 298 293 292 293 297 295 295 299 300 299 296 295 293 288 284 291 291 291 297 300 304 310 313 316 318
308 308 305 303 295 300 299 293 274 269 280 276 280 285 286 284 286 288 287 285 285 281 284 290 291 295 297 296 299 298 291 283 282 282 283 292 289 293 300 301 302 308 312 316 316
309 306 303 301 300 298 294 279 265 271 271 285 284 284 281 283 283 284 283 280 287 286 284 279 279 292 297 296 293 294 291 285 280 281 284 291 285 293 301 301 304 304 313 311 306
307 298 297 297 300 297 283 267 268 271 282 281 281 273 276 282 280 282 281 281 285 286 282 282 283 296 297 298 297 294 290 293 286 284 283 287 292 298 299 301 305 306 306 304 304
295 294 294 298 298 291 276 273 270 282 284 279 270 274 268 274 276 277 280 285 285 289 290 288 282 292 295 297 299 295 296 287 286 279 279 286 286 290 294 297 302 301 301 302 300
293 284 294 298 294 283 270 268 277 285 285 276 271 272 273 274 278 275 280 286 288 288 290 291 286 286 292 289 286 292 290 292 291 287 282 281 285 289 293 297 299 300 299 298 297
289 276 295 296 278 282 268 272 285 282 286 284 282 278 272 273 271 278 279 283 289 289 285 289 288 279 285 291 293 291 291 292 284 282 284 284 286 292 292 298 299 297 296 294 294
283 286 294 292 269 273 281 279 281 281 283 282 280 281 280 273 271 280 283 288 289 287 286 289 283 273 282 288 292 289 292 294 291 287 281 282 285 292 297 297 298 295 294 293 293
285 276 280 287 283 277 273 273 274 284 283 285 284 285 282 276 280 273 280 287 288 287 292 292 285 281 280 284 288 287 289 293 291 283 283 286 285 290 293 294 295 294 294 293 293
285 282 281 271 275 279 282 278 277 280 285 285 281 277 280 273 273 277 281 284 286 289 287 288 282 283 286 287 287 288 289 291 290 291 285 287 286 289 294 294 295 294 294 293 293
284 280 282 282 279 280 280 279 279 280 282 278 280 277 284 274 277 277 280 281 281 284 284 288 280 285 283 287 286 285 288 291 291 292 290 289 286 290 296 296 295 295 294 294 295
286 285 283 279 282 277 277 279 280 281 283 285 284 279 276 280 283 285 286 284 284 281 282 283 281 282 274 283 283 276 285 290 291 292 292 287 288 290 293 294 295 295 296 296 296
Wind_Speed
13 12 12 12 10 10 10 9 9 10 10 11 12 12 14 15 16 9 9 9 7 8 1 1 1 4 3 3 2 4 4 11 11 5 6 6 3 8 5 6 5 4 7 13 14
13 13 13 12 12 11 11 10 9 9 10 11 11 12 14 16 11 11 17 20 19 10 3 6 7 7 5 5 6 7 6 14 4 7 4 3 5 7 2 5 4 5 10 22 21
14 14 13 12 12 12 11 10 9 8 8 10 11 13 14 12 6 6 10 24 22 15 7 4 12 10 10 6 8 6 15 13 13 5 5 5 8 4 8 3 7 11 19 16 20
13 13 13 13 12 11 11 9 8 9 8 9 9 11 14 3 6 2 9 14 7 10 11 6 9 10 8 15 11 10 15 15 15 7 1 2 3 8 5 4 12 18 23 15 19
12 11 13 12 11 10 10 10 8 8 9 9 9 10 5 3 11 14 22 21 6 3 14 13 10 7 11 11 13 18 18 22 9 10 9 3 6 6 5 2 18 18 19 15 17
11 10 9 10 10 9 9 9 9 8 8 8 9 9 2 12 8 13 12 10 3 4 12 13 7 7 5 5 7 5 25 14 15 12 8 8 5 2 4 11 18 19 17 12 16
9 9 6 8 7 8 8 8 8 7 7 8 8 5 5 18 7 15 16 7 2 6 11 11 12 7 2 3 3 9 19 27 14 18 14 6 5 8 7 14 16 13 13 10 10
7 5 5 4 6 5 7 7 6 6 8 8 8 3 7 7 9 11 11 9 6 13 13 10 13 11 3 2 3 3 13 23 24 19 13 11 10 13 9 15 15 12 8 8 10
3 3 2 3 2 4 5 5 6 8 9 9 4 4 9 10 3 6 3 9 9 10 8 9 7 5 5 2 1 5 12 21 21 19 9 8 5 9 10 14 14 13 9 9 13
4 4 2 1 1 3 3 6 6 6 7 4 5 5 7 7 5 12 15 10 7 9 6 8 7 4 5 5 7 3 6 14 22 20 24 7 7 3 9 15 16 15 10 9 13
7 6 5 2 2 3 1 3 6 4 2 6 5 6 12 9 8 7 7 5 6 7 7 11 8 11 10 11 5 8 14 13 17 13 19 20 12 5 7 6 15 15 13 12 9
8 6 4 5 6 2 2 4 3 3 9 9 13 8 9 4 6 10 5 3 7 9 6 4 12 7 10 9 2 12 17 16 14 11 17 15 17 16 9 8 16 17 14 14 12
7 6 6 6 3 2 5 3 4 5 3 6 2 3 7 2 5 11 5 5 7 8 6 3 3 9 10 7 3 5 6 5 8 9 7 10 13 18 12 4 8 12 15 13 17
7 7 6 4 4 2 3 6 5 2 5 7 2 3 4 3 5 5 3 4 4 6 3 4 3 8 12 11 9 4 2 10 2 9 5 11 5 26 22 8 12 12 14 14 15
9 7 6 3 2 3 4 6 6 4 5 9 6 2 5 4 7 3 2 4 5 3 3 1 4 9 8 8 16 3 6 3 5 9 4 7 2 7 24 17 12 14 15 17 14
7 6 6 4 3 1 6 6 3 7 4 7 5 7 11 4 6 6 4 3 4 4 3 2 2 1 3 8 10 11 5 3 3 3 3 5 4 4 18 22 11 15 14 16 19
7 10 5 3 2 6 5 3 6 5 4 9 5 7 7 7 6 6 5 5 2 4 3 4 1 0 1 4 9 13 3 2 2 1 1 4 5 5 6 4 8 16 17 14 16
6 4 3 1 5 5 3 7 6 3 4 4 6 9 4 8 6 7 8 5 3 2 2 2 3 1 2 1 6 6 6 1 4 2 2 3 5 3 5 3 2 6 14 17 16
8 3 2 5 5 3 6 5 7 5 4 6 8 6 6 6 2 7 6 4 4 6 5 3 1 3 3 4 2 4 2 3 5 1 2 1 3 5 5 5 14 12 17 16 16
2 2 3 7 6 5 7 3 2 1 2 4 2 3 2 7 7 6 6 6 8 8 7 3 2 3 3 4 1 3 6 3 3 2 3 2 2 2 5 6 13 12 14 14 14
3 4 4 6 4 6 3 5 3 3 3 3 2 3 2 3 4 4 5 9 12 9 7 1 3 4 2 6 3 3 1 5 4 3 2 3 2 1 3 11 12 12 12 14 14
2 3 4 4 5 2 1 4 3 3 3 3 3 3 2 3 3 3 4 4 12 9 7 7 2 2 3 1 1 4 3 1 3 3 1 2 3 3 5 9 14 13 13 12 13
2 2 3 4 3 2 3 3 2 2 2 1 2 3 0 2 4 3 5 8 8 10 7 7 4 3 2 3 3 0 2 2 3 2 1 3 4 5 8 10 11 15 11 11 11
3 4 5 4 2 2 1 3 4 2 3 3 3 4 2 2 3 4 5 5 12 6 11 2 4 2 3 3 3 0 2 0 5 2 2 2 4 2 6 10 10 11 12 11 11
3 2 1 4 4 4 3 2 3 3 3 3 3 2 2 2 4 3 3 7 6 10 3 1 1 1 1 1 3 1 3 4 4 4 2 3 2 4 7 10 10 12 12 12 10
3 3 2 2 3 5 4 3 3 4 3 3 3 3 2 4 5 4 6 2 3 8 7 7 2 2 2 3 7 2 2 4 4 2 4 2 3 3 6 9 10 12 13 12 12
1 2 4 3 2 3 3 4 1 3 4 5 4 1 2 6 2 6 4 6 4 5 6 7 3 2 4 1 6 5 6 7 5 7 5 2 3 2 5 9 11 11 11 12 12
Wind_Direction
302 299 301 299 294 298 301 300 310 322 328 327 332 333 328 324 321 307 272 242 232 249 210 330 258 135 107 155 240 38 244 235 233 244 248 192 150 247 246 102 67 8 151 154 153
292 294 292 291 296 292 294 296 303 310 321 321 327 332 332 330 313 274 241 258 271 240 226 226 231 183 193 180 182 202 231 226 231 242 248 343 193 221 145 122 56 49 80 134 148
298 289 286 286 285 283 285 293 294 305 312 314 323 330 333 335 296 258 294 234 243 240 202 239 251 206 215 179 181 188 244 237 232 259 117 271 324 257 167 203 178 159 145 145 151
291 292 290 280 276 282 287 289 288 293 300 310 316 328 327 312 273 178 342 14 356 253 215 217 261 193 210 213 204 205 230 251 221 283 183 296 249 313 216 206 156 154 157 149 159
286 283 279 271 274 281 283 279 289 286 295 304 311 326 353 271 249 279 293 303 286 270 215 210 231 262 211 200 214 218 214 225 218 240 225 282 281 250 234 204 132 139 157 157 161
279 274 277 270 273 274 277 286 285 283 289 302 309 325 276 272 251 264 279 298 260 304 240 216 215 210 293 255 242 258 220 226 211 231 241 192 257 317 184 127 126 143 162 163 164
274 269 268 272 268 267 285 284 285 278 295 295 302 308 253 252 275 295 296 267 267 278 272 238 232 200 114 301 303 260 232 221 225 205 252 161 291 236 161 138 132 146 155 165 162
258 255 261 265 252 280 293 278 271 276 282 282 294 317 254 262 253 277 271 282 255 263 240 236 226 231 210 131 288 249 270 200 219 193 252 169 200 225 183 146 142 150 156 163 172
208 223 249 236 266 297 282 263 258 271 278 278 301 172 265 294 260 290 272 255 273 256 244 234 200 192 116 229 165 217 284 207 199 203 223 178 210 203 176 157 146 151 160 173 166
109 128 141 122 301 259 246 251 272 305 288 223 245 290 266 311 327 296 274 258 254 260 245 198 197 174 145 152 204 151 245 214 199 202 208 221 239 149 179 160 153 151 153 178 172
104 101 106 116 168 177 316 341 12 2 333 210 222 236 291 298 292 268 272 255 230 224 220 219 194 194 173 171 212 262 234 264 192 180 203 197 221 187 214 162 151 157 156 173 195
88 99 111 124 122 162 7 62 55 227 305 262 257 255 272 280 301 298 18 229 186 227 210 216 225 169 148 165 35 306 263 242 194 199 187 178 209 238 193 187 170 162 159 170 170
83 100 116 117 122 33 95 53 340 13 275 295 265 264 279 322 269 290 342 299 239 240 221 256 197 182 165 135 119 264 288 241 229 161 172 161 215 228 243 212 167 166 161 176 170
86 88 72 33 29 334 53 331 340 30 50 290 311 262 295 258 272 279 251 258 248 232 216 238 8 170 160 156 157 225 188 315 268 180 151 181 188 196 225 204 178 161 168 182 173
66 56 17 51 257 53 305 324 333 63 25 288 304 248 277 274 268 264 259 279 302 290 340 105 14 163 175 177 165 227 132 212 347 179 148 168 122 177 208 212 190 175 168 174 170
47 11 356 9 40 313 316 328 55 44 282 327 316 330 339 339 317 291 282 214 266 185 23 36 198 257 12 162 131 161 182 139 81 80 199 204 137 216 189 197 175 176 169 159 142
48 37 45 18 304 312 336 37 36 101 332 306 313 329 335 334 312 331 312 321 323 6 115 234 141 148 99 130 179 180 99 135 132 149 126 173 134 253 316 101 178 175 173 152 134
18 52 45 69 316 339 51 51 74 251 253 298 317 316 36 358 330 321 333 344 272 257 286 117 65 125 180 275 148 189 151 81 3 112 84 77 174 230 322 53 35 166 131 125 121
314 318 16 317 345 26 64 54 200 219 284 336 325 41 335 336 147 347 324 316 329 3 350 35 39 142 46 356 316 164 101 154 118 15 109 47 236 254 124 93 80 100 120 125 126
351 17 314 322 352 55 73 262 214 236 353 46 89 104 335 306 11 14 326 338 346 357 343 340 22 356 68 292 139 195 141 107 25 123 110 186 246 171 167 134 120 119 120 119 113
42 34 273 332 47 47 115 226 280 263 238 122 218 323 266 321 316 323 314 311 355 335 338 353 5 337 55 28 350 32 89 52 97 91 87 121 293 44 265 166 151 130 124 125 120
61 29 296 18 49 41 130 196 259 298 291 283 142 158 194 306 324 311 321 296 344 347 5 0 30 41 53 43 290 296 345 67 109 217 127 138 300 327 274 156 136 126 130 127 127
81 243 342 58 109 312 298 286 253 294 279 281 273 166 90 296 3 287 321 308 358 11 16 340 326 10 143 137 167 40 326 348 71 59 40 101 231 341 77 106 121 128 129 125 122
73 15 333 42 356 146 18 298 321 249 285 307 302 343 115 283 259 273 324 313 329 319 312 297 328 119 22 45 305 241 275 342 91 59 171 201 163 223 100 113 119 125 130 132 139
27 71 114 326 332 328 309 285 298 303 178 295 305 207 156 295 338 275 306 321 309 343 311 15 342 61 124 355 306 313 275 192 152 154 118 288 83 182 148 148 148 135 135 141 150
134 136 167 276 282 329 280 270 254 299 184 254 216 267 280 191 181 290 331 311 341 335 343 339 271 328 219 270 264 218 266 239 203 22 278 164 102 296 134 116 141 155 156 162 166
296 29 110 287 326 333 257 248 295 22 285 211 231 172 231 244 238 267 247 271 275 336 328 341 317 25 263 331 315 331 206 171 153 156 279 180 165 135 131 151 161 164 172 173 174